Kapisillit

KL  EN  DA
ASIAQ
Weather Now GREENLAND SURVEY
Updated [WGT/WGST] Temperature [°C] Wind [m/s] Air pressure [hPa] Relative humidity [%] Precipitation [mm]
Present Wind chill Speed Max
25.02 08:00-12,7-16,61,6 ⇙4,11006660,0
25.02 07:00-14,3-19,32,1 ⇙4,11006740,0
25.02 06:00-13,9-20,43,2 ⇐5,81006790,0
25.02 05:00-11,6-18,64,1 ⇖7,31006650,0
25.02 04:00-11,6-18,74,2 ⇖6,11006690,0
25.02 03:00-11,4-17,53,3 ⇖5,31006670,0
25.02 02:00-11,4-18,54,2 ⇑6,31006750,0
25.02 01:00-11,3-20,57,0 ⇑8,91006830,0
25.02 00:00-10,9-20,57,9 ⇑9,51006790,0
24.02 23:00-11,1-20,67,7 ⇑9,01005690,0
24.02 22:00-11,2-21,08,4 ⇑10,91005730,0
24.02 21:00-10,9-21,39,5 ⇗12,11004630,0
24.02 20:00-10,4-21,110,7 ⇗13,01003720,0
24.02 19:00-10,0-18,66,7 ⇗11,11002770,2
24.02 18:00-10,3-16,33,4 ⇒7,11002900,0
24.02 17:00-11,3-16,62,7 ⇙5,51001951,5
24.02 16:00-10,9-16,42,9 ⇙7,01000960,6
24.02 15:00-10,9-14,71,7 ⇐5,1999950,7
24.02 14:00-9,9-14,72,5 ⇑7,4998930,1
24.02 13:00-10,8-15,12,1 ⇓5,5997900,2
24.02 12:00-9,50,00,9 ⇙3,0996900,2
24.02 11:00-9,7-13,11,6 ⇗2,9995890,1
24.02 10:00-9,9-12,71,3 ⇒3,3994810,0
24.02 09:00-9,30,01,2 ⇗2,8993830,0
24.02 08:00-9,80,00,7 ⇐2,5993820,0
Position: (64.4325,-50.27175)

[Back]